This is the latest recevied weather packets stored in our database for station/object OE1HTB-13. If no packets are shown the sender has not sent any weather packets the latest 10 day(s).
| Time | Temp. | Humidity | Pressure | Rain* | Wind** | Luminosity | Snow |
|---|---|---|---|---|---|---|---|
| 1777787173 | 12.78° C | 65% | 1017.6 hPa | 0 mm | - | 47 W/m² | - |
| 1777786273 | 12.22° C | 67% | 1017.6 hPa | 0 mm | - | 47 W/m² | - |
| 1777785373 | 11.67° C | 68% | 1017.6 hPa | 0 mm | - | 183 W/m² | - |
| 1777784474 | 11.11° C | 69% | 1017.6 hPa | 0 mm | - | 171 W/m² | - |
| 1777783574 | 10.56° C | 71% | 1017.6 hPa | 0 mm | - | 67 W/m² | - |
| 1777782673 | 10° C | 72% | 1017.5 hPa | 0 mm | - | 33 W/m² | - |
| 1777781774 | 9.44° C | 72% | 1017.5 hPa | 0 mm | - | 16 W/m² | - |
| 1777780872 | 9.44° C | 71% | 1017.4 hPa | 0 mm | - | 11 W/m² | - |
| 1777779972 | 9.44° C | 70% | 1017.3 hPa | 0 mm | - | 7 W/m² | - |
| 1777779072 | 9.44° C | 71% | 1017.3 hPa | 0 mm | - | 0 W/m² | - |
| 1777778172 | 9.44° C | 72% | 1017.2 hPa | 0 mm | - | 0 W/m² | - |
| 1777777272 | 9.44° C | 71% | 1017.3 hPa | 0 mm | - | 0 W/m² | - |
| 1777776372 | 10° C | 69% | 1017.3 hPa | 0 mm | - | 0 W/m² | - |
| 1777775471 | 10.56° C | 66% | 1017.4 hPa | 0 mm | - | 0 W/m² | - |
| 1777774571 | 11.11° C | 62% | 1017 hPa | 0 mm | - | 0 W/m² | - |
| 1777773671 | 11.67° C | 62% | 1017 hPa | 0 mm | - | 0 W/m² | - |
| 1777772771 | 11.67° C | 61% | 1017 hPa | 0 mm | - | 0 W/m² | - |
| 1777771871 | 11.67° C | 62% | 1017 hPa | 0 mm | - | 0 W/m² | - |
| 1777770971 | 11.67° C | 61% | 1017.1 hPa | 0 mm | - | 0 W/m² | - |
| 1777770070 | 12.22° C | 61% | 1017.2 hPa | 0 mm | - | 0 W/m² | - |
| 1777769172 | 12.22° C | 60% | 1017.2 hPa | 0 mm | - | 0 W/m² | - |
| 1777768270 | 12.78° C | 59% | 1017.3 hPa | 0 mm | - | 0 W/m² | - |
| 1777767370 | 12.78° C | 60% | 1017.4 hPa | 0 mm | - | 0 W/m² | - |
| 1777766470 | 12.78° C | 61% | 1017.5 hPa | 0 mm | - | 0 W/m² | - |
| 1777765570 | 12.78° C | 59% | 1017.7 hPa | 0 mm | - | 0 W/m² | - |
* Rain latest hour (hover to see other rain measurements)
** Current wind speed in m/s (hover to see current wind gust speed)